Regional Weather Roundup
Issued by NWS Kansas City/Pleasant Hill, MO

Home | Current Version | Previous Version | Graphics & Text | Print | Product List | Glossary Off
Versions: 1 2 3 4 5 6 7 8 9 10 11 12 13 14 15 16 17 18 19 20 21 22 23 24 25 26 27

000
ASUS43 KEAX 050610
RWREAX

WEATHER ROUNDUP FOR EASTERN KANSAS AND NORTHWEST MISSOURI
NATIONAL WEATHER SERVICE KANSAS CITY/PLEASANT HILL MO
100 AM CDT THU MAY 05 2016

KSZ040-057-103>105-MOZ028-029-037-043-050700-
...KANSAS CITY METROPOLITAN AREA...

CITY           SKY/WX    TMP DP  RH WIND       PRES   REMARKS
K.C. INTL      CLEAR     52  39  61 W6        30.01S
6HR MIN TEMP:  51; 6HR MAX TEMP:  67;

K.C. DOWNTOWN  CLEAR     52  44  74 CALM      30.00S
6HR MIN TEMP:  51; 6HR MAX TEMP:  69;

LEES SUMMIT    CLEAR     54  40  59 W3        30.01S
6HR MIN TEMP:  49; 6HR MAX TEMP:  67;

OLATHE - IXD   CLEAR     51  39  63 CALM      30.03R
6HR MIN TEMP:  50; 6HR MAX TEMP:  67;

OLATHE - OJC   CLEAR     53  39  59 NW5       30.02S
6HR MIN TEMP:  53; 6HR MAX TEMP:  67;

LAWRENCE       CLEAR     44  41  89 NW6       30.03R

$$

MOZ001>008-011>017-020>025-030>033-038>040-044>046-053-054-050700-
...NORTHERN AND CENTRAL MISSOURI...

CITY           SKY/WX    TMP DP  RH WIND       PRES   REMARKS
ST. JOSEPH     CLEAR     48  43  82 CALM      30.01S
6HR MIN TEMP:  47; 6HR MAX TEMP:  68;

MOSBY          CLEAR     46  45  93 CALM      30.01S
WARRENSBURG    CLEAR     50  37  62 W6        30.00S
WHITEMAN AFB   CLEAR     49  40  71 W2        29.98S
6HR MIN TEMP:  48; 6HR MAX TEMP:  66;

CLINTON        CLEAR     46  41  81 CALM      30.00F
SEDALIA        CLEAR     53  38  56 W8        29.99S
6HR MIN TEMP:  53; 6HR MAX TEMP:  67;

WARSAW         NOT AVBL
CHILLICOTHE      N/A     52  40  63 NW3       29.99S
6HR MIN TEMP:  48; 6HR MAX TEMP:  66;

KIRKSVILLE     CLEAR     49  36  61 NW7       29.96S
6HR MIN TEMP:  46; 6HR MAX TEMP:  63;


$$

MOZ041-047>049-056>058-063>065-088>090-097-050700-
...EASTERN AND SOUTHERN MISSOURI...

CITY           SKY/WX    TMP DP  RH WIND       PRES   REMARKS
ST. LOUIS INTL PTCLDY    52  39  61 NW7       29.90S
6HR MIN TEMP:  51; 6HR MAX TEMP:  64;

SPIRIT OF STL  PTCLDY    48  41  76 CALM      29.90R
COLUMBIA       CLEAR     50  38  63 NW7       29.94F
JEFFERSON CITY CLEAR     47  40  76 NW3       29.95S
ROLLA          PTCLDY    43  36  76 W7        29.93S
SPRINGFIELD    CLEAR     49  38  65 NW5       29.99S
JOPLIN         PTCLDY    47  43  86 CALM      30.02R
WEST PLAINS    CLEAR     50  35  56 NW5       29.98R

$$

IAZ060-094-KSZ022-034>040-054-083-096-NEZ052-066-093-050700-
...KANSAS...SOUTHEAST NEBRASKA AND IOWA...

CITY           SKY/WX    TMP DP  RH WIND       PRES   REMARKS
TOPEKA         NOT AVBL
MANHATTAN      CLEAR     46  40  79 CALM      30.04S
EMPORIA        CLEAR     52  41  66 W5        30.04R
CHANUTE        CLEAR     48  41  76 NW3       30.03R
WICHITA        CLEAR     49  42  77 W5        30.05S
OMAHA          CLEAR     52  44  74 CALM      30.02R
LINCOLN        CLEAR     46  39  76 N3        30.06R
LAMONI         CLEAR     47  40  76 NW9       29.98R
DES MOINES     CLEAR     54  34  46 N6        29.99R

$$





USA.gov is the U.S. government's official web portal to all federal, state and local government web resources and services.